Location: Sawmill Trailhead
(33.5800°N, 116.4497°W)
Time: 08:27:50
(UTC-07:00)

Uosat F - Pass Details

Date: 28 April 2018
Orbit: 750 x 761 km, 98.7° (Epoch: 26 May)

Event Time Altitude Azimuth Distance (km) Brightness Sun altitude
Rises 20:00:01 0° 178° (S) 3,192 14.1 -7.3°
Reaches altitude 10° 20:02:22 10° 183° (S) 2,269 13.3 -7.8°
Maximum altitude 20:07:13 53° 259° (W) 926 11.9 -8.7°
Drops below altitude 10° 20:12:07 10° 336° (NNW) 2,277 14.3 -9.6°
Sets 20:14:28 0° 341° (NNW) 3,205 15.0 -10.1°
